This is the latest recevied weather packets stored in our database for station/object DO0SOB-11. If no packets are shown the sender has not sent any weather packets the latest 10 day(s).
| Time | Temp. | Humidity | Pressure | Rain* | Wind** | Luminosity | Snow |
|---|---|---|---|---|---|---|---|
| 1777852788 | 11.67° C | 100% | 973.6 hPa | - | - | - | - |
| 1777851888 | 12.22° C | 100% | 973.6 hPa | - | - | - | - |
| 1777850988 | 11.67° C | 100% | 974 hPa | - | - | - | - |
| 1777850088 | 11.67° C | 100% | 973.7 hPa | - | - | - | - |
| 1777849188 | 12.22° C | 100% | 973.8 hPa | - | - | - | - |
| 1777848288 | 12.78° C | 100% | 973.8 hPa | - | - | - | - |
| 1777847388 | 12.78° C | 100% | 973.8 hPa | - | - | - | - |
| 1777846488 | 13.33° C | 100% | 973.7 hPa | - | - | - | - |
| 1777845588 | 13.89° C | 100% | 973.7 hPa | - | - | - | - |
| 1777844687 | 13.89° C | 100% | 973.6 hPa | - | - | - | - |
| 1777843787 | 13.89° C | 100% | 973.6 hPa | - | - | - | - |
| 1777842887 | 14.44° C | 100% | 973.7 hPa | - | - | - | - |
| 1777841987 | 15° C | 100% | 973.8 hPa | - | - | - | - |
| 1777841087 | 15° C | 100% | 973.6 hPa | - | - | - | - |
| 1777840187 | 15° C | 100% | 973.8 hPa | - | - | - | - |
| 1777839287 | 15° C | 100% | 973.8 hPa | - | - | - | - |
| 1777838387 | 15° C | 100% | 973.7 hPa | - | - | - | - |
| 1777837487 | 15° C | 100% | 973.7 hPa | - | - | - | - |
| 1777836587 | 15° C | 100% | 973.6 hPa | - | - | - | - |
| 1777835687 | 15° C | 100% | 973.5 hPa | - | - | - | - |
| 1777834787 | 15° C | 100% | 973.5 hPa | - | - | - | - |
| 1777833887 | 15.56° C | 100% | 973.3 hPa | - | - | - | - |
| 1777832987 | 15.56° C | 100% | 973.3 hPa | - | - | - | - |
| 1777832087 | 15.56° C | 100% | 973.2 hPa | - | - | - | - |
| 1777831186 | 16.11° C | 100% | 973.1 hPa | - | - | - | - |
* Rain since midnight (hover to see other rain measurements)
** Current wind speed in m/s (hover to see current wind gust speed)